GFSFLT2_sfc_temp_252.txt.gz
Temp
53 50 46 49 50 49 51 51 53 56 58 58 57 57 57 57 57 56 56 56 56 55 55 55 55 54 54
49 45 48 44 47 44 49 51 52 53 56 57 57 56 56 56 55 55 55 55 55 54 54 54 53 53 53
48 43 46 46 43 44 43 44 49 51 54 56 56 56 55 55 54 54 53 53 53 53 52 52 51 51 52
46 44 44 44 44 44 38 40 44 48 51 52 54 54 54 54 53 52 51 52 52 52 51 49 49 49 50
49 43 42 41 42 43 44 43 40 44 43 47 48 49 50 53 50 50 50 51 51 51 50 49 48 48 48
51 45 46 46 42 43 41 38 37 41 42 43 47 45 46 48 50 50 50 50 50 49 49 48 48 48 47
51 52 49 48 46 44 41 41 44 40 43 40 39 43 42 44 48 49 49 49 49 48 48 47 47 47 47
52 52 52 53 49 49 45 43 37 38 42 36 37 39 42 42 47 49 48 48 48 47 47 46 46 46 46
50 50 51 50 49 45 40 37 36 34 38 36 34 35 35 36 39 47 48 48 47 47 46 45 45 45 43
47 48 48 49 48 48 44 39 37 32 36 36 32 32 31 32 36 40 43 47 47 46 45 45 44 38 35
46 43 43 44 45 45 43 43 38 36 36 37 32 31 31 29 31 33 35 37 38 39 44 43 43 40 33
38 37 37 38 39 39 38 36 37 36 37 36 32 32 30 28 28 31 31 33 33 33 33 37 38 41 41
35 33 33 33 33 33 33 33 32 33 36 33 33 31 31 28 27 28 28 30 31 30 30 30 31 31 29
33 32 32 33 32 33 32 31 29 29 31 32 32 31 29 29 29 28 29 27 28 29 29 30 30 31 30
32 31 31 31 31 32 31 30 27 26 26 28 29 29 29 29 26 28 27 27 28 27 27 26 29 29 28
32 31 30 30 29 30 30 29 27 27 26 26 26 25 26 28 30 26 26 25 25 26 24 19 23 28 27
31 31 30 29 30 29 29 29 28 27 26 26 25 24 22 22 26 33 22 21 21 21 21 19 20 25 27

GFSFLT2_sfc_temp_255.txt.gz
Temp
48 47 46 47 48 48 50 49 50 55 58 58 58 58 58 59 59 59 58 58 58 58 58 57 57 56 56
47 45 45 46 47 48 48 50 49 53 55 57 57 57 57 57 57 57 56 56 56 56 57 56 56 56 55
49 46 45 42 44 44 42 43 47 51 54 55 56 57 57 57 56 55 55 54 54 54 54 54 54 54 54
48 45 43 42 41 40 39 40 46 47 50 52 54 55 55 56 55 53 52 53 53 53 53 52 52 52 52
49 44 43 41 42 44 44 41 38 40 42 44 48 50 52 54 52 51 51 52 52 52 52 52 51 50 50
50 44 47 44 44 45 44 39 40 38 40 42 44 46 48 49 52 52 51 51 51 51 51 51 50 49 49
50 51 50 48 47 45 41 43 45 40 41 38 39 42 47 48 50 50 50 50 50 50 50 49 49 48 48
51 52 52 51 50 50 48 45 39 39 41 37 38 39 44 43 47 49 49 49 49 49 49 48 48 47 47
50 50 50 50 50 48 41 40 38 36 37 37 35 36 37 38 41 47 48 48 48 48 48 48 47 46 44
47 47 48 49 48 48 46 40 40 32 36 36 33 33 33 34 36 40 44 47 47 47 47 47 46 38 34
46 45 45 45 46 47 47 44 41 37 37 37 33 32 32 30 31 34 38 39 42 43 46 46 45 42 33
40 39 38 39 39 39 38 37 37 38 38 37 33 33 31 29 29 30 32 34 35 35 34 40 44 44 41
37 35 34 34 33 33 33 33 32 33 37 34 33 32 32 30 28 29 29 30 31 31 30 30 30 31 29
34 33 32 33 32 33 32 32 30 29 31 33 32 32 30 30 30 28 29 27 28 28 29 29 30 31 30
32 31 32 32 31 32 32 31 29 27 27 28 29 30 30 30 28 28 26 26 27 27 26 25 28 29 30
32 32 31 31 30 30 31 30 28 27 27 27 27 27 27 28 30 26 25 24 24 24 24 20 24 28 28
32 31 31 30 31 29 29 29 28 28 27 26 25 25 23 24 25 31 19 21 21 22 22 21 19 25 27

GFSFLT2_sfc_temp_258.txt.gz
Temp
51 49 47 47 48 48 49 49 50 55 58 58 58 58 58 59 59 60 60 60 60 61 60 60 60 59 58
49 46 47 45 46 46 47 49 49 52 55 56 57 57 57 58 57 58 58 58 58 59 59 59 59 58 58
49 46 45 44 43 45 45 46 47 50 53 54 56 56 56 57 57 57 56 56 56 56 56 56 57 57 57
49 45 44 42 43 43 43 40 44 47 49 51 53 54 55 56 55 54 54 54 55 55 54 54 54 54 55
48 45 44 42 42 44 43 44 40 42 40 43 45 47 51 53 53 51 53 54 54 54 54 53 52 52 53
49 45 47 45 45 45 43 39 39 40 40 45 42 43 46 48 52 53 52 53 53 53 53 52 52 51 51
51 49 49 48 45 42 41 40 45 42 39 36 38 40 44 46 50 51 52 51 52 52 51 51 51 51 50
51 52 52 51 50 51 48 45 41 40 40 37 36 38 40 41 48 50 50 50 50 50 50 50 49 49 49
50 50 50 50 50 48 43 40 39 38 38 38 37 35 37 39 41 48 49 49 50 50 49 49 49 48 47
48 47 48 49 48 49 47 41 39 34 38 37 34 35 35 34 35 39 44 48 48 49 49 49 48 42 39
47 46 46 46 46 46 47 45 40 38 39 38 33 33 33 33 32 34 36 40 42 45 48 47 46 43 37
41 41 40 41 41 40 39 39 38 39 39 37 33 34 33 30 31 32 32 35 36 35 36 42 45 43 41
38 37 35 36 34 33 33 33 33 33 37 34 33 33 33 32 31 29 30 31 33 33 33 33 34 33 33
36 34 33 33 33 33 32 32 32 30 31 33 33 33 31 31 31 29 30 29 30 30 31 31 31 31 31
33 32 32 32 32 32 32 31 31 28 28 29 30 31 31 31 27 27 27 26 27 26 27 26 29 28 28
33 32 32 32 31 31 31 31 29 28 27 28 28 28 28 28 31 26 25 25 25 26 24 19 23 27 28
32 32 32 31 32 30 30 30 28 28 27 27 26 26 24 23 25 31 23 22 21 21 21 21 21 24 26

GFSFLT2_sfc_temp_261.txt.gz
Temp
55 55 52 53 53 56 55 57 58 56 58 58 58 58 58 59 59 60 60 62 62 62 63 62 62 61 60
51 49 51 53 52 53 53 55 58 55 55 56 57 57 57 57 57 58 58 58 59 60 61 61 61 61 60
48 48 47 47 49 51 53 55 54 52 53 54 55 56 56 57 56 56 56 56 56 57 58 58 59 59 60
51 48 48 46 48 51 49 50 52 51 52 53 54 54 55 55 55 53 53 54 56 56 56 56 56 57 58
51 49 49 47 49 51 50 52 51 51 51 52 54 54 55 53 53 51 52 53 54 55 55 55 54 54 55
50 50 50 51 51 51 49 48 48 49 49 53 53 52 53 54 53 52 52 52 53 53 54 54 54 53 53
53 52 53 55 54 48 48 49 51 50 48 47 47 48 52 52 50 50 51 51 52 52 52 52 52 52 52
57 56 57 56 53 52 51 51 48 47 48 44 46 46 51 51 48 49 49 50 51 51 51 51 51 50 50
51 50 50 50 52 49 45 42 41 42 44 42 42 45 44 46 47 47 48 49 49 50 50 50 49 49 48
48 48 49 50 48 52 50 42 38 36 40 39 39 39 37 39 41 42 43 46 47 48 49 49 49 46 45
48 49 48 48 48 49 48 46 38 38 42 39 35 35 35 36 35 35 37 39 41 43 47 48 48 46 40
43 43 43 43 44 43 42 41 40 41 42 38 34 35 33 33 34 34 34 35 36 37 38 44 47 47 44
40 39 37 39 36 34 34 34 33 34 37 35 34 33 33 33 33 32 33 34 34 34 34 35 35 36 36
37 36 34 34 34 34 33 33 33 32 32 33 33 33 33 33 32 31 32 32 34 33 32 32 33 34 35
35 34 33 33 33 33 33 32 33 31 30 30 31 32 32 32 31 32 31 32 32 32 32 32 33 34 35
34 33 33 33 32 32 32 32 32 30 29 29 30 30 30 31 33 31 31 31 31 30 30 29 31 34 35
33 33 33 32 33 32 32 31 30 30 29 29 29 30 29 29 29 31 30 29 29 29 29 29 28 31 33

GFSFLT2_sfc_temp_264.txt.gz
Temp
60 54 56 58 57 56 56 57 59 55 57 58 58 58 58 59 59 60 60 61 62 63 64 64 64 63 62
54 53 54 56 59 56 57 59 62 58 55 57 57 57 58 58 57 57 57 58 59 60 61 62 63 62 62
51 50 49 49 52 55 57 57 59 55 55 55 56 56 56 56 56 56 55 56 56 56 58 59 60 61 62
56 48 52 47 49 49 47 54 57 57 55 55 55 54 54 55 55 53 53 54 55 56 56 55 56 58 59
51 49 46 45 47 49 50 53 57 58 56 57 56 58 58 54 53 51 52 53 53 54 55 55 55 55 57
52 51 52 55 53 52 52 54 51 54 54 56 56 55 57 58 55 53 52 52 52 53 53 54 54 54 54
54 55 57 58 57 57 56 56 57 53 55 54 54 55 58 57 52 51 51 51 51 51 51 52 52 53 53
58 60 60 60 61 60 59 58 56 52 54 49 58 53 58 58 52 50 49 49 50 50 50 51 50 51 51
54 54 53 53 57 57 53 49 47 49 51 49 50 51 54 54 55 49 48 48 49 49 49 49 49 49 50
51 49 51 53 49 58 56 46 39 37 46 43 42 42 40 47 48 49 48 47 46 47 48 48 49 48 47
50 50 51 52 51 51 52 50 39 40 44 41 36 37 36 36 37 41 41 42 42 44 45 46 47 48 43
48 47 48 47 47 47 46 45 45 44 44 41 34 37 34 34 35 36 39 38 36 37 39 41 44 46 46
44 43 42 44 38 36 35 35 34 35 38 37 35 34 34 34 35 34 35 36 35 35 37 37 36 37 37
40 38 35 35 35 35 34 34 34 33 33 34 34 34 33 34 34 33 33 33 36 37 34 34 34 34 34
36 35 34 34 33 34 33 33 33 33 32 32 32 33 33 33 32 33 34 34 35 34 34 35 36 35 35
36 35 34 34 33 33 33 33 33 33 32 31 31 31 31 31 33 34 34 33 33 33 33 32 34 37 38
34 34 34 33 34 33 33 32 32 32 31 31 30 31 29 30 29 31 32 32 32 32 32 32 31 34 36